CW0213 Ferndale WA US current weather conditions

sailwx.info

Wind from 198 at 3 knots gusting 8

Air temperature 14.4° C
Dewpoint 10.8° C

Last reported at 2020-Aug-12 16:45 UTC.
Time now 2020-Aug-12 17:21 UTC

Location: N 48°52' W 122°37'.
View on Google Maps.

See reports from other nearby stations

  
Tides and Currents Weather Stations Pressure Air Temp Water Temp Dewpoint Dewpoint Depression Visibility Wind Speed Wind Dir Waves Ship Positions
date/time (UTC)wind fromknots sea level pressurealtimeterstation pressurevisibilityair tempwater tempwave heightnotes
2020-Aug-12 16:45 198 3 gusting 8 14.4
2020-Aug-12 16:31 198 3 gusting 7 14.4
2020-Aug-12 16:15 238 5 gusting 8 13.9
2020-Aug-12 16:00 252 4 gusting 12 13.3
2020-Aug-12 15:46 228 3 gusting 9 12.8
2020-Aug-12 15:30 162 4 gusting 12 12.8
2020-Aug-12 15:15 178 3 gusting 8 12.8
2020-Aug-12 15:00 155 4 gusting 11 12.8
2020-Aug-12 14:45 186 5 gusting 13 12.8
2020-Aug-12 14:30 224 5 gusting 12 12.2
2020-Aug-12 14:16 232 5 gusting 11 12.2
2020-Aug-12 14:00 208 3 gusting 7 11.7
2020-Aug-12 13:47 207 3 gusting 10 11.7
2020-Aug-12 13:31 242 2 gusting 7 11.7
2020-Aug-12 13:16 199 2 gusting 6 11.7
2020-Aug-12 13:01 211 1 gusting 6 11.7
2020-Aug-12 12:46 198 2 gusting 6 11.7
2020-Aug-12 12:30 221 3 gusting 8 11.7
2020-Aug-12 12:16 164 4 gusting 8 11.7
2020-Aug-12 12:01 248 3 gusting 6 11.7
2020-Aug-12 11:46 236 2 gusting 7 11.7
2020-Aug-12 11:31 195 3 gusting 7 11.7
2020-Aug-12 11:15 211 4 gusting 8 11.7
2020-Aug-12 11:01 248 3 gusting 10 11.7
2020-Aug-12 10:45 229 4 gusting 9 11.7
2020-Aug-12 10:30 248 3 gusting 8 11.7
2020-Aug-12 10:15 225 4 gusting 12 12.2
2020-Aug-12 10:01 258 2 gusting 8 12.2
2020-Aug-12 09:45 202 5 gusting 8 12.2
2020-Aug-12 09:15 248 5 gusting 9 12.8
2020-Aug-12 09:00 240 4 gusting 8 12.8
2020-Aug-12 08:45 192 3 gusting 9 12.8
2020-Aug-12 08:30 263 4 gusting 7 12.8
2020-Aug-12 08:15 241 4 gusting 8 12.8
2020-Aug-12 08:00 222 5 gusting 7 12.8
2020-Aug-12 07:45 229 4 gusting 8 12.8
2020-Aug-12 07:30 248 3 gusting 8 12.8
2020-Aug-12 07:15 261 3 gusting 6 12.8
2020-Aug-12 07:00 194 3 gusting 6 12.8
2020-Aug-12 06:45 253 4 gusting 7 13.3
2020-Aug-12 06:30 258 5 gusting 7 13.9
2020-Aug-12 06:16 201 5 gusting 8 13.9
2020-Aug-12 06:01 220 5 gusting 12 13.9
2020-Aug-12 05:47 203 4 gusting 7 13.9
2020-Aug-12 05:33 197 3 gusting 7 13.9
2020-Aug-12 05:16 165 3 gusting 9 13.9
2020-Aug-12 05:03 214 3 gusting 8 13.9
2020-Aug-12 04:31 219 4 gusting 9 14.4
2020-Aug-12 04:17 236 4 gusting 8 14.4
2020-Aug-12 04:02 214 3 gusting 6 15.0
2020-Aug-12 03:47 183 4 gusting 8 15.0
2020-Aug-12 03:31 182 5 gusting 8 15.6
2020-Aug-12 03:16 183 2 gusting 7 15.6
2020-Aug-12 03:02 217 2 gusting 7 16.1
2020-Aug-12 02:46 263 2 gusting 7 16.1
2020-Aug-12 02:31 209 2 gusting 8 16.1
2020-Aug-12 02:16 200 5 gusting 9 16.1
2020-Aug-12 02:01 215 5 gusting 8 16.7
2020-Aug-12 01:45 184 4 gusting 9 17.2
2020-Aug-12 01:30 192 5 gusting 8 17.2
2020-Aug-12 01:15 211 4 gusting 13 17.8
2020-Aug-12 01:00 248 5 gusting 15 17.8
2020-Aug-12 00:45 240 5 gusting 11 18.3
2020-Aug-12 00:31 243 6 gusting 13 18.3
2020-Aug-12 00:15 244 5 gusting 13 18.9
2020-Aug-12 00:00 250 6 gusting 12 19.4
2020-Aug-11 23:45 253 6 gusting 11 19.4
2020-Aug-11 23:30 238 4 gusting 9 18.9
2020-Aug-11 23:15 221 5 gusting 8 18.9
2020-Aug-11 23:00 265 5 gusting 8 18.9
2020-Aug-11 22:46 230 6 gusting 11 18.9
2020-Aug-11 22:31 265 8 gusting 12 18.9
2020-Aug-11 22:16 252 6 gusting 13 18.9
2020-Aug-11 21:47 228 7 gusting 13 18.9
2020-Aug-11 21:32 217 4 gusting 10 19.4
2020-Aug-11 21:16 269 5 gusting 10 18.9
2020-Aug-11 21:01 248 3 gusting 9 18.3
2020-Aug-11 20:46 192 3 gusting 9 18.3
2020-Aug-11 20:31 268 4 gusting 11 18.3
2020-Aug-11 20:16 245 6 gusting 9 17.8
2020-Aug-11 20:02 195 3 gusting 11 17.8
2020-Aug-11 19:45 249 4 gusting 8 17.2
2020-Aug-11 19:30 269 4 gusting 8 17.8
2020-Aug-11 19:16 190 4 gusting 8 17.2
2020-Aug-11 18:47 214 4 gusting 7 16.7
2020-Aug-11 18:32 264 5 gusting 8 17.2
2020-Aug-11 18:17 252 4 gusting 9 17.8
2020-Aug-11 18:03 257 1 gusting 10 17.8
2020-Aug-11 17:15 251 3 gusting 8 16.7
2020-Aug-11 17:00 242 3 gusting 11 16.7
2020-Aug-11 16:45 254 5 gusting 8 17.2
2020-Aug-11 16:30 261 2 gusting 11 16.7
2020-Aug-11 16:16 244 5 gusting 9 16.7
2020-Aug-11 16:01 223 5 gusting 8 16.7
2020-Aug-11 15:48 171 2 gusting 6 16.1
2020-Aug-11 15:31 257 2 gusting 6 15.6
2020-Aug-11 15:17 218 2 gusting 5 15.0
2020-Aug-11 15:01 194 2 gusting 5 14.4
2020-Aug-11 14:45 261 1 gusting 6 14.4
2020-Aug-11 14:31 176 2 gusting 5 14.4
2020-Aug-11 14:18 205 1 gusting 5 13.9
2020-Aug-11 14:01 223 2 gusting 6 13.3
2020-Aug-11 13:46 209 2 gusting 4 13.3
2020-Aug-11 13:31 226 2 gusting 4 13.3
2020-Aug-11 13:19 218 0 gusting 4 13.3
2020-Aug-11 13:02 210 1 gusting 4 13.3
2020-Aug-11 12:46 261 0 gusting 2 13.3
2020-Aug-11 12:32 261 13.3
2020-Aug-11 12:16 261 13.3
2020-Aug-11 12:01 261 13.9
2020-Aug-11 11:46 262 1 gusting 3 13.9
2020-Aug-11 11:31 263 0 gusting 2 13.9
2020-Aug-11 11:16 263 0 gusting 3 13.9
2020-Aug-11 11:01 263 0 gusting 2 13.3
2020-Aug-11 10:46 263 0 gusting 3 13.3
2020-Aug-11 10:31 254 0 gusting 2 13.3
2020-Aug-11 10:16 254 13.9
2020-Aug-11 10:00 225 13.9
2020-Aug-11 09:46 248 0 gusting 3 13.9
2020-Aug-11 09:30 223 1 gusting 4 14.4
2020-Aug-11 09:16 223 1 gusting 3 14.4
2020-Aug-11 09:01 240 0 gusting 2 14.4
2020-Aug-11 08:45 238 1 gusting 3 15.0
2020-Aug-11 08:31 240 0 gusting 4 15.0
2020-Aug-11 08:15 246 1 gusting 4 15.0
2020-Aug-11 08:01 242 0 gusting 2 15.6
2020-Aug-11 07:45 242 0 gusting 2 15.6
2020-Aug-11 07:30 259 0 gusting 3 15.6
2020-Aug-11 07:15 236 0 gusting 3 16.1
2020-Aug-11 07:00 227 0 gusting 4 16.1
2020-Aug-11 06:45 200 0 gusting 4 16.1
2020-Aug-11 06:30 219 1 gusting 3 16.7
2020-Aug-11 06:15 199 1 gusting 6 16.7
2020-Aug-11 06:00 243 3 gusting 6 16.7
2020-Aug-11 05:45 254 2 gusting 6 16.7
2020-Aug-11 05:30 250 1 gusting 6 16.7
2020-Aug-11 05:15 260 1 gusting 3 16.7
2020-Aug-11 05:00 256 1 gusting 3 16.7
2020-Aug-11 04:45 249 0 gusting 2 16.7
2020-Aug-11 04:30 249 17.2
2020-Aug-11 04:15 249 17.2
2020-Aug-11 04:00 249 17.8
2020-Aug-11 03:45 249 17.8
2020-Aug-11 03:32 249 18.3
2020-Aug-11 03:16 249 18.9
2020-Aug-11 03:02 249 19.4
2020-Aug-11 02:47 249 20.0
2020-Aug-11 02:32 246 20.0
2020-Aug-11 02:17 239 20.6
2020-Aug-11 02:01 254 21.1
2020-Aug-11 01:46 228 21.1
2020-Aug-11 01:32 266 0 gusting 3 21.7
2020-Aug-11 01:17 261 21.7
2020-Aug-11 01:01 267 1 gusting 6 22.2
2020-Aug-11 00:46 255 0 gusting 4 22.8
2020-Aug-11 00:31 248 3 gusting 8 22.2
2020-Aug-11 00:16 230 22.2
2020-Aug-10 23:45 240 0 gusting 3 23.9
2020-Aug-10 23:30 310 0 gusting 5 23.3
2020-Aug-10 23:15 257 1 gusting 7 22.8
2020-Aug-10 23:00 263 2 gusting 8 22.8
2020-Aug-10 22:47 257 1 gusting 3 23.9
2020-Aug-10 22:15 273 2 gusting 7 22.8
2020-Aug-10 22:00 259 1 gusting 3 23.3
2020-Aug-10 21:47 246 3 gusting 7 22.8
2020-Aug-10 21:30 261 1 gusting 6 23.3
2020-Aug-10 21:15 265 0 gusting 6 22.8
2020-Aug-10 21:00 011 3 gusting 8 21.7
2020-Aug-10 20:46 276 1 gusting 10 22.2
2020-Aug-10 20:31 255 0 gusting 6 22.2
2020-Aug-10 20:15 260 0 gusting 7 21.7
2020-Aug-10 20:00 253 4 gusting 10 21.1
2020-Aug-10 19:45 067 0 gusting 7 21.7
2020-Aug-10 19:30 021 0 gusting 6 21.7
2020-Aug-10 19:16 265 1 gusting 4 22.2
2020-Aug-10 19:01 333 21.7
2020-Aug-10 18:45 243 0 gusting 5 21.1
2020-Aug-10 18:30 263 1 gusting 8 20.6
2020-Aug-10 18:15 266 0 gusting 5 20.6
2020-Aug-10 18:00 252 2 gusting 6 20.0
2020-Aug-10 17:45 257 3 gusting 6 20.0
2020-Aug-10 17:30 026 0 gusting 6 20.0
2020-Aug-10 17:15 216 18.9
2020-Aug-10 17:00 251 0 gusting 4 18.3